Weather History for Greenville, NC

Change the Weather History Date:

Monday, November 5, 2012

  Actual Average Record
Temperature  
Mean Temperature 42 °F -  
Max Temperature 51 °F 67 °F 87 °F (2003)
Min Temperature 32 °F 43 °F 27 °F (1983)
Degree Days  
Heating Degree Days 24    
Moisture  
Dew Point 33 °F    
Average Humidity 75    
Maximum Humidity 100    
Minimum Humidity 44    
Precipitation  
Precipitation 0.00 in - - ()
Sea Level Pressure  
Sea Level Pressure 30.08 in    
Wind  
Wind Speed 5 mph (NNE)    
Max Wind Speed 14 mph    
Max Gust Speed 18 mph    
Visibility 10 miles    
Events      
Averages and records for this station are not official NWS values.
T = Trace of Precipitation, MM = Missing Value Source: NWS Daily Summary

Daily Weather History Graph

Daily Weather History Graph

Search for Another Location

Airport:

Trip Planner

Search our weather history database for the weather conditions in past years. The results will help you decide how hot, cold, wet, or windy it might be!

Date:

Astronomy

Nov. 05, 2012 Rise Set
Actual Time 6:35 AM EST 5:09 PM EST
Civil Twilight 6:09 AM EST 5:36 PM EST
Nautical Twilight 5:38 AM EST 6:06 PM EST
Astronomical Twilight 5:08 AM EST 6:36 PM EST
Moon 10:45 PM EST (11/5) 11:53 AM EST (11/5)
Length of Visible Light 11h 27m
Length of Day
10h 34m
Waning Gibbous, 63% of the Moon is Illuminated
Nov 5
Waning Gibbous
Nov 6
Last Quarter
Nov 13
New
Nov 20
First Quarter
Nov 28
Full

Hourly Weather History & Observations

Time (EST) Temp. Windchill Dew Point Humidity Pressure Visibility Wind Dir Wind Speed Gust Speed Precip Events Conditions
12:15 AM 42.8 °F 39.3 °F 37.4 °F 81% 30.02 in 10.0 mi NNE 5.8 mph - N/A   Overcast
12:35 AM 42.8 °F 41.1 °F 39.2 °F 87% 30.02 in 10.0 mi North 3.5 mph - N/A   Overcast
12:55 AM 41.0 °F 37.1 °F 37.4 °F 87% 30.01 in 10.0 mi North 5.8 mph - N/A   Mostly Cloudy
1:15 AM 42.8 °F 41.1 °F 37.4 °F 81% 30.02 in 10.0 mi North 3.5 mph - N/A   Mostly Cloudy
1:35 AM 41.0 °F 39.0 °F 37.4 °F 87% 30.02 in 10.0 mi NNE 3.5 mph - N/A   Overcast
1:55 AM 42.8 °F - 37.4 °F 81% 30.02 in 10.0 mi Calm Calm - N/A   Overcast
2:15 AM 41.0 °F 39.0 °F 37.4 °F 87% 30.02 in 10.0 mi North 3.5 mph - N/A   Mostly Cloudy
2:35 AM 41.0 °F - 37.4 °F 87% 30.02 in 10.0 mi Calm Calm - N/A   Mostly Cloudy
2:55 AM 41.0 °F - 37.4 °F 87% 30.02 in 10.0 mi Calm Calm - N/A   Mostly Cloudy
3:15 AM 41.0 °F 39.0 °F 37.4 °F 87% 30.04 in 10.0 mi NNW 3.5 mph - N/A   Overcast
3:35 AM 41.0 °F - 37.4 °F 87% 30.03 in 10.0 mi Calm Calm - N/A   Overcast
3:55 AM 41.0 °F 38.0 °F 37.4 °F 87% 30.03 in 10.0 mi North 4.6 mph - N/A   Overcast
4:15 AM 41.0 °F 38.0 °F 37.4 °F 87% 30.04 in 10.0 mi North 4.6 mph - N/A   Overcast
4:35 AM 41.0 °F 38.0 °F 37.4 °F 87% 30.04 in 10.0 mi North 4.6 mph - N/A   Overcast
4:55 AM 39.2 °F 35.0 °F 37.4 °F 93% 30.05 in 10.0 mi North 5.8 mph - N/A   Mostly Cloudy
5:15 AM 37.4 °F 33.8 °F 35.6 °F 93% 30.05 in 10.0 mi North 4.6 mph - N/A   Mostly Cloudy
5:35 AM 37.4 °F 32.8 °F 35.6 °F 93% 30.06 in 10.0 mi North 5.8 mph - N/A   Scattered Clouds
5:55 AM 37.4 °F 33.8 °F 35.6 °F 93% 30.06 in 10.0 mi North 4.6 mph - N/A   Clear
6:15 AM 37.4 °F 32.8 °F 33.8 °F 87% 30.06 in 10.0 mi North 5.8 mph - N/A   Clear
6:35 AM 35.6 °F 31.7 °F 33.8 °F 93% 30.07 in 10.0 mi North 4.6 mph - N/A   Clear
6:55 AM 35.6 °F 31.7 °F 33.8 °F 93% 30.08 in 10.0 mi North 4.6 mph - N/A   Clear
7:15 AM 35.6 °F 31.7 °F 33.8 °F 93% 30.09 in 10.0 mi North 4.6 mph - N/A   Clear
7:35 AM 35.6 °F 31.7 °F 33.8 °F 93% 30.09 in 10.0 mi North 4.6 mph - N/A   Clear
7:55 AM 37.4 °F 31.4 °F 33.8 °F 87% 30.10 in 10.0 mi NNE 8.1 mph - N/A   Clear
8:15 AM 39.2 °F 33.0 °F 33.8 °F 81% 30.11 in 10.0 mi NNE 9.2 mph - N/A   Clear
8:35 AM 41.0 °F 35.2 °F 32.0 °F 70% 30.11 in 10.0 mi NNE 9.2 mph - N/A   Clear
8:55 AM 42.8 °F 37.0 °F 32.0 °F 66% 30.11 in 10.0 mi NNE 10.4 mph - N/A   Clear
9:15 AM 42.8 °F 35.8 °F 32.0 °F 66% 30.11 in 10.0 mi North 13.8 mph - N/A   Clear
9:35 AM 44.6 °F 39.2 °F 30.2 °F 57% 30.11 in 10.0 mi NNE 10.4 mph - N/A   Clear
9:55 AM 44.6 °F 38.4 °F 32.0 °F 61% 30.12 in 10.0 mi NNE 12.7 mph 16.1 mph N/A   Clear
10:15 AM 44.6 °F 38.8 °F 30.2 °F 57% 30.11 in 10.0 mi NNE 11.5 mph - N/A   Clear
10:35 AM 46.4 °F 41.5 °F 32.0 °F 57% 30.11 in 10.0 mi NE 10.4 mph - N/A   Clear
10:55 AM 46.4 °F 42.4 °F 32.0 °F 57% 30.10 in 10.0 mi North 8.1 mph - N/A   Clear
11:15 AM 46.4 °F 41.9 °F 32.0 °F 57% 30.09 in 10.0 mi North 9.2 mph - N/A   Clear
11:35 AM 48.2 °F - 32.0 °F 54% 30.09 in 10.0 mi North 10.4 mph 16.1 mph N/A   Clear
11:55 AM 48.2 °F - 32.0 °F 54% 30.08 in 10.0 mi NNE 9.2 mph 17.3 mph N/A   Clear
12:15 PM 50.0 °F - 32.0 °F 50% 30.08 in 10.0 mi NNW 8.1 mph 18.4 mph N/A   Clear
12:35 PM 50.0 °F - 32.0 °F 50% 30.06 in 10.0 mi North 9.2 mph - N/A   Clear
12:55 PM 50.0 °F - 32.0 °F 50% 30.06 in 10.0 mi North 6.9 mph - N/A   Clear
1:15 PM 50.0 °F - 32.0 °F 50% 30.06 in 10.0 mi North 12.7 mph - N/A   Clear
1:35 PM 50.0 °F - 32.0 °F 50% 30.06 in 10.0 mi NNE 6.9 mph 10.4 mph N/A   Clear
1:55 PM 51.8 °F - 32.0 °F 47% 30.06 in 10.0 mi North 5.8 mph - N/A   Clear
2:15 PM 51.8 °F - 32.0 °F 47% 30.06 in 10.0 mi North 9.2 mph - N/A   Clear
2:35 PM 51.8 °F - 32.0 °F 47% 30.05 in 10.0 mi North 6.9 mph - N/A   Clear
2:55 PM 51.8 °F - 30.2 °F 44% 30.06 in 10.0 mi NNE 6.9 mph - N/A   Clear
3:15 PM 51.8 °F - 30.2 °F 44% 30.06 in 10.0 mi NNE 9.2 mph 16.1 mph N/A   Clear
3:35 PM 50.0 °F - 30.2 °F 47% 30.06 in 10.0 mi North 10.4 mph - N/A   Clear
3:55 PM 50.0 °F - 30.2 °F 47% 30.06 in 10.0 mi NNE 6.9 mph - N/A   Clear
4:15 PM 50.0 °F - 32.0 °F 50% 30.06 in 10.0 mi North 9.2 mph - N/A   Clear
4:35 PM 46.4 °F 42.9 °F 32.0 °F 57% 30.06 in 10.0 mi NNE 6.9 mph - N/A   Clear
4:55 PM 44.6 °F 42.2 °F 32.0 °F 61% 30.07 in 10.0 mi North 4.6 mph - N/A   Clear
5:15 PM 42.8 °F - 32.0 °F 66% 30.07 in 10.0 mi Calm Calm - N/A   Clear
5:35 PM 42.8 °F - 32.0 °F 66% 30.08 in 10.0 mi Calm Calm - N/A   Clear
5:55 PM 41.0 °F - 32.0 °F 70% 30.09 in 10.0 mi Calm Calm - N/A   Clear
6:15 PM 37.4 °F - 32.0 °F 81% 30.10 in 10.0 mi Calm Calm - N/A   Clear
6:35 PM 35.6 °F - 32.0 °F 87% 30.10 in 10.0 mi Calm Calm - N/A   Clear
6:55 PM 35.6 °F - 32.0 °F 87% 30.11 in 10.0 mi Calm Calm - N/A   Clear
7:15 PM 35.6 °F - 33.8 °F 93% 30.11 in 10.0 mi Calm Calm - N/A   Clear
7:35 PM 35.6 °F - 32.0 °F 87% 30.12 in 10.0 mi Calm Calm - N/A   Clear
7:55 PM 33.8 °F - 32.0 °F 93% 30.12 in 10.0 mi Calm Calm - N/A   Clear
8:15 PM 32.0 °F 28.7 °F 32.0 °F 100% 30.12 in 10.0 mi NNE 3.5 mph - N/A   Clear
8:35 PM 35.6 °F 32.8 °F 32.0 °F 87% 30.13 in 10.0 mi NE 3.5 mph - N/A   Clear
8:55 PM 35.6 °F 32.8 °F 32.0 °F 87% 30.13 in 10.0 mi NE 3.5 mph - N/A   Clear
9:15 PM 35.6 °F 32.8 °F 30.2 °F 81% 30.14 in 10.0 mi NE 3.5 mph - N/A   Clear
9:35 PM 37.4 °F 34.9 °F 32.0 °F 81% 30.14 in 10.0 mi ENE 3.5 mph - N/A   Clear
9:55 PM 37.4 °F 33.8 °F 32.0 °F 81% 30.14 in 10.0 mi ENE 4.6 mph - N/A   Clear
10:15 PM 35.6 °F - 32.0 °F 87% 30.15 in 10.0 mi Calm Calm - N/A   Clear
10:35 PM 33.8 °F - 30.2 °F 87% 30.14 in 10.0 mi Calm Calm - N/A   Clear
10:55 PM 33.8 °F - 32.0 °F 93% 30.15 in 10.0 mi Calm Calm - N/A   Clear
11:15 PM 33.8 °F - 32.0 °F 93% 30.13 in 10.0 mi Calm Calm - N/A   Clear
11:35 PM 32.0 °F - 30.2 °F 93% 30.13 in 10.0 mi Calm Calm - N/A   Clear
11:55 PM 32.0 °F - 32.0 °F 100% 30.13 in 10.0 mi Calm Calm - N/A   Clear